Location: Cahas Mountain Overlook
(37.0833°N, 80.1000°W)
Time: 10:47:09
(UTC-05:00)

S-56A Canister/Altair - Pass Details

Date: 01 December 2023
Orbit: 640 x 2488 km, 38.9° (Epoch: 25 February)

Event Time Altitude Azimuth Distance (km) Brightness Sun altitude
Rises 20:44:46 0° 268° (W) 4,039 12.0 -43.5°
Reaches altitude 10° 20:49:17 10° 242° (WSW) 3,457 11.3 -44.4°
Maximum altitude 20:53:01 13° 217° (SW) 3,508 11.1 -45.2°
Drops below altitude 10° 20:57:18 10° 193° (SSW) 4,090 11.2 -46.0°
Enters shadow 21:00:12 - 181° (S) 4,679 11.5 -46.6°
Sets 21:03:52 0° 170° (S) 5,523 - -47.3°
